STARLINK-2429, 47838

Orbit data source: Space-Track

STARLINK-2429, 47838 is a payload satellite owned by SpaceX/Seattle (US) in LEO that was launched on Thu, 11 Mar 2021 UTC via an FALCON 9 launch vehicle from the Air Force Eastern Test Range (AFETR). Payload-class satellites include a variety of spacecraft equipped with specific instruments for various scientific and technological missions. These include communications satellites like Starlink; space stations such as the ISS; scientific satellites like the Hubble; Earth observation satellites from companies like Planet Labs, Umbra, and HawkEye 360; GPS; miniature CubeSats for education and research; and military/defense satellites.

Loading next visibility...
Identifier
47838, 2021-018BD
Orbit
LEO
Country
Flag of USUS
Related business
Manufacturer
SpaceX/Seattle
Mission
Operational Commercial Communications
Bus & Motor
STARLINK, Unknown motor
Mass
260 kg wet, ~248 kg dry
Launch date (UTC)
2021-03-11 (5 years ago)
Launch vehicle
FALCON 9
Launch site
Air Force Eastern Test Range (AFETR)
Object type
Payload
Rocket body
Debris
Shape & HBR
Box + 1 Pan, 10.1 m
Radar Cross Section
13.562 m², Large (>1 m²)

Expand to show TLE details & history
Last TLE update: 5 hours ago

TLE from 5 hours ago
0 STARLINK-2429
1 47838U 21018BD  26035.83334490  .00053312  00000-0  18481-2 0  9990
2 47838  53.1561  37.9973 0001229  95.7621   1.6094 15.29329928  5774
Epoch: 2026-02-04T20:00Z
TLE epoch observation values (Epoch: 2026-02-04T20:00:00.999Z)
Latitude
52.68036°
Longitude
65.18814°
Altitude
483.403 km
Speed
7.631 km/s
True Right ascension
09h 20m 44s
True Declination
52° 30' 28"
Sunlit
Object was in full shadow at epoch
Visualization orbit readout
Latitude
Unknown
Longitude
Unknown
Altitude
Unknown
Speed
Unknown
Apparent Right ascension
Unknown
Apparent Declination
Unknown
Sunlit
N/A
Visualization observer readout
Local Sidereal Time
02:32:01
Azimuth
Unknown
Elevation
Unknown
Doppler factor
Unknown
Orbital elements
Apogee altitude
478.914 km
Perigee altitude
477.229 km
Semi-major axis
6,856.208 km
Eccentricity
0.00012
Inclination
53.1561°
RAAN
37.9973°
Arg. of periapsis
95.7621°
True anomaly
1.6098°
Mean anomaly
1.6094°
Eccentric anomaly
1.6096°
Mean motion
3.82311 °/min
Orbital period
94.16 mins
BSTAR
0.0018481
Loading maneuver chart data...
Computing Atmospheric mass density...
Loading historical data...
Loading historical data...
Loading historical data...
Loading historical data...
Loading historical data...
Loading historical data...
Loading historical data...

Documentation

Showing up to 5 results
|